Powrót do katalogu

TRISAT-R

LostNaukaMEO
NORAD 53108·PAYLOAD·🇸🇮 Slovenia

Wystrzelony Jul 13, 2022 z Guiana Space Centre

Loading…

Następne Przeloty (najbliższe 24 godziny)

TLE

NieaktualneSource: Space-Track

Epoka: Feb 3, 2023, 15:21 UTC

1 53108U 22080D   23034.63990194 -.00000003  00000-0  00000+0 0  9995
2 53108  70.1725   6.2232 0013087 218.2793 141.6938  6.42152542 13071

Śledź TRISAT-R w czasie rzeczywistym z AllMySat

Download on the App Store